STARLINK-31964, 59895

Orbit data source: Space-Track

STARLINK-31964, 59895 is a payload satellite owned by SpaceX/Seattle (US) in LEO that was launched on Tue, 28 May 2024 UTC via an FALCON 9 launch vehicle from the Air Force Eastern Test Range (AFETR). Payload-class satellites include a variety of spacecraft equipped with specific instruments for various scientific and technological missions. These include communications satellites like Starlink; space stations such as the ISS; scientific satellites like the Hubble; Earth observation satellites from companies like Planet Labs, Umbra, and HawkEye 360; GPS; miniature CubeSats for education and research; and military/defense satellites.

Loading next visibility...
Identifier
59895, 2024-100L
Orbit
LEO
Country
Flag of USUS
Related business
Manufacturer
SpaceX/Seattle
Mission
Operational Commercial Communications
Bus & Motor
STARLINK V2M, Unknown motor
Mass
730 kg wet, ~700 kg dry
Launch date (UTC)
2024-05-28 (1 year ago)
Launch vehicle
FALCON 9
Launch site
Air Force Eastern Test Range (AFETR)
Object type
Payload
Rocket body
Debris
Shape & HBR
Box + 2 Pan, 17.7 m
Radar Cross Section
33.884 m², Large (>1 m²)

Expand to show TLE details & history
Last TLE update: 22 hours ago

TLE from 22 hours ago
0 STARLINK-31964
1 59895U 24100L   25310.78153072 -.00000254  00000-0  30496-6 0  9997
2 59895  43.0027  99.1734 0000964 265.1851  94.8891 15.27583975 82319
Epoch: 2025-11-06T18:45Z
TLE epoch observation values (Epoch: 2025-11-06T18:45:24.254Z)
Latitude
0.00002°
Longitude
131.58744°
Altitude
482.869 km
Speed
7.626 km/s
True Right ascension
06h 36m 41s
True Declination
0° 00' 00"
Sunlit
Object was in full shadow at epoch
Visualization orbit readout
Latitude
Unknown
Longitude
Unknown
Altitude
Unknown
Speed
Unknown
Apparent Right ascension
Unknown
Apparent Declination
Unknown
Sunlit
N/A
Visualization observer readout
Local Sidereal Time
12:29:51
Azimuth
Unknown
Elevation
Unknown
Doppler factor
Unknown
Orbital elements
Apogee altitude
485.644 km
Perigee altitude
484.32 km
Semi-major axis
6,863.119 km
Eccentricity
0.0001
Inclination
43.0027°
RAAN
99.1734°
Arg. of periapsis
265.1851°
True anomaly
94.90011°
Mean anomaly
94.8891°
Eccentric anomaly
94.8946°
Mean motion
3.81734 °/min
Orbital period
94.31 mins
BSTAR
3.0496e-7
Loading maneuver chart data...
Computing Atmospheric mass density...
Loading historical data...
Loading historical data...
Loading historical data...
Loading historical data...
Loading historical data...
Loading historical data...
Loading historical data...

Documentation

Showing up to 5 results
|